This is the latest recevied weather packets stored in our database for station/object HEBOWX. If no packets are shown the sender has not sent any weather packets the latest 10 day(s).
| Time | Temp. | Humidity | Pressure | Rain* | Wind** | Luminosity | Snow |
|---|---|---|---|---|---|---|---|
| 1778068838 | 10° C | 63% | 1015.4 hPa | 0 mm | - | - | - |
| 1778068533 | 9.44° C | 61% | 1015.2 hPa | 0 mm | - | - | - |
| 1778068233 | 9.44° C | 64% | 1015.3 hPa | 0 mm | - | - | - |
| 1778067931 | 9.44° C | 65% | 1015.3 hPa | 0 mm | - | - | - |
| 1778067633 | 8.89° C | 65% | 1015.3 hPa | 0 mm | - | - | - |
| 1778067331 | 8.89° C | 62% | 1015.3 hPa | 0 mm | - | - | - |
| 1778067031 | 8.89° C | 62% | 1015.3 hPa | 0 mm | - | - | - |
| 1778066733 | 8.33° C | 63% | 1015.2 hPa | 0 mm | - | - | - |
| 1778066432 | 8.33° C | 64% | 1015.2 hPa | 0 mm | - | - | - |
| 1778066131 | 7.78° C | 67% | 1015.2 hPa | 0 mm | - | - | - |
| 1778065831 | 7.78° C | 68% | 1015.1 hPa | 0 mm | - | - | - |
| 1778065531 | 7.78° C | 69% | 1015.1 hPa | 0 mm | - | - | - |
| 1778065231 | 7.78° C | 68% | 1015.1 hPa | 0 mm | - | - | - |
| 1778064933 | 7.78° C | 69% | 1015 hPa | 0 mm | - | - | - |
| 1778064632 | 7.78° C | 69% | 1015 hPa | 0 mm | - | - | - |
| 1778064331 | 7.78° C | 69% | 1015 hPa | 0 mm | - | - | - |
| 1778064031 | 8.33° C | 69% | 1014.8 hPa | 0 mm | - | - | - |
| 1778063731 | 8.33° C | 69% | 1014.7 hPa | 0 mm | - | - | - |
| 1778063431 | 8.33° C | 69% | 1014.8 hPa | 0 mm | - | - | - |
| 1778063136 | 8.33° C | 68% | 1014.6 hPa | 0 mm | - | - | - |
| 1778062831 | 8.33° C | 68% | 1014.6 hPa | 0 mm | - | - | - |
| 1778062532 | 8.33° C | 69% | 1014.7 hPa | 0 mm | - | - | - |
| 1778062231 | 8.33° C | 70% | 1014.6 hPa | 0 mm | - | - | - |
| 1778061931 | 8.89° C | 69% | 1014.6 hPa | 0 mm | - | - | - |
| 1778061632 | 8.89° C | 68% | 1014.6 hPa | 0 mm | - | - | - |
* Rain latest hour (hover to see other rain measurements)
** Current wind speed in m/s (hover to see current wind gust speed)